Location: Gammelsbach
(49.5261°N, 8.9630°E)
Time: 05:09:36
(UTC+00:00)

Lacrosse 4 Rocket - Pass Details

Date: 17 June 2025
Orbit: 512 x 577 km, 68.0° (Epoch: 12 July)

Event Time Altitude Azimuth Distance (km) Brightness Sun altitude
Rises 20:35:16 0° 320° (NW) 2,773 7.6 -7.9°
Reaches altitude 10° 20:37:34 10° 313° (NW) 1,880 5.7 -8.1°
Maximum altitude 20:41:30 39° 245° (WSW) 874 2.5 -8.5°
Drops below altitude 10° 20:45:27 10° 176° (S) 1,883 3.5 -8.9°
Enters shadow 20:45:52 - 174° (S) 2,045 3.7 -8.9°
